Regional Weather Roundup
Issued by NWS Burlington, VT

Home | Current Version | Previous Version | Text Only | Print | Product List | Glossary On
Versions: 1 2 3 4 5 6 7 8 9 10 11 12 13 14 15 16 17 18 19 20 21 22 23 24 25 26 27 28 29 30 31 32 33 34 35 36 37 38 39 40 41 42 43 44 45 46 47 48 49 50
000
ASUS41 KBTV 071930
RWRBTV
VERMONT REGIONAL WEATHER ROUNDUP
NATIONAL WEATHER SERVICE BURLINGTON VT
300 PM EDT TUE JUL 07 2015

NOTE: "FAIR" INDICATES FEW OR NO CLOUDS BELOW 12,000 FEET WITH NO
SIGNIFICANT WEATHER AND/OR OBSTRUCTIONS TO VISIBILITY.

* THESE REPORTS ARE NOT UNDER NWS QUALITY CONTROL AND/OR DO NOT
  REPORT WEATHER SUCH AS PRECIPITATION AND FOG.

VTZ001>019-072000-
_____VERMONT_____


CITY           SKY/WX    TMP DP  RH WIND       PRES   REMARKS
BURLINGTON     PTSUNNY   83  68  60 S17G26    29.87F
MONTPELIER     CLOUDY    73  69  87 S15       30.00F
MORRISVILLE    LGT RAIN  75  71  87 VRB5      29.95F FOG
ST. JOHNSBURY*   N/A     80  65  59 MISG      29.92F
LYNDONVILLE*   RAIN      75  66  75 SE12G18   29.97F
MIDDLEBURY*    PTSUNNY   80  71  74 S9G17     29.91F
RUTLAND*       PTSUNNY   79  66  65 S9        29.95F
SPRINGFIELD    CLOUDY    80  67  64 S14G21    29.96F
HIGHGATE*      PTSUNNY   83  71  67 S8        29.85F
NEWPORT*       CLOUDY    78  68  70 S13       29.93F
BENNINGTON     MOSUNNY   82  71  69 SE12G20   29.96F
SUTTON*          N/A     75 N/A N/A MISG        N/A
GALLUP MILLS*    N/A     77 N/A N/A MISG        N/A
MT. MANSFIELD*   N/A     63 N/A N/A SW9         N/A

_____LAKE CHAMPLAIN_____


CITY           SKY/WX    TMP DP  RH WIND       PRES   REMARKS

$$

NYZ007-026>031-035-052-083-072000-
_____NORTHERN NEW YORK_____


CITY           SKY/WX    TMP DP  RH WIND       PRES   REMARKS
PLATTSBURGH    MOSUNNY   83  71  67 S10G22    29.86F
SARANAC LAKE   MOSUNNY   80  67  64 SW18      29.91F
MASSENA        MOSUNNY   85  69  58 SW16      29.82F
OGDENSBURG*    MOSUNNY   86  72  62 SW12      29.82F HX  92
POTSDAM*       PTSUNNY   84  73  70 SW10      29.83F HX  91
STARK FALLS*     N/A     79 N/A N/A SW14        N/A
WATERTOWN      MOSUNNY   84  72  67 SW8       29.84F
FT DRUM        MOSUNNY   84  68  58 W14       29.85F
ALBANY         LGT RAIN  77  72  84 SW9       29.94R
GLENS FALLS    PTSUNNY   78  71  79 S12       29.91F

$$
NHZ002-005-011-072000-
_____NEW HAMPSHIRE_____


CITY           SKY/WX    TMP DP  RH WIND       PRES   REMARKS
LEBANON        CLOUDY    81  68  64 S14G21    29.95F
KEENE          PTSUNNY   77  68  73 S9G24     29.98F
MT WASHINGTON  FOG       55  55 100 S28G39      N/A  VSB 0
PLYMOUTH       CLOUDY    81  73  76 SE3       29.96F
WHITEFIELD     PTSUNNY   83  65  54 S10       29.96F

$$

_____REGIONAL QUEBEC LOCATIONS_____


CITY           SKY/WX    TMP DP  RH WIND       PRES   REMARKS
MONTREAL       LGT RAIN  81  72  74 S13G21    29.81F
QUEBEC CITY    CLOUDY    82  68  61 W8        29.84
SHERBROOKE     MOSUNNY   82  68  61 S16G25    29.89F

_____REGIONAL ONTARIO LOCATIONS_____


CITY           SKY/WX    TMP DP  RH WIND       PRES   REMARKS
OTTAWA         PTSUNNY   84  68  58 SW16G26   29.80F

______KEY______
VSB  - VISIBILITY IN MILES
WCI  - WIND CHILL INDEX
HX   - HEAT INDEX
$$
NNNN



USA.gov is the U.S. government's official web portal to all federal, state and local government web resources and services.